Location: Prairie View Elementary School
(39.8322°N, 99.5698°W)
Time: 04:20:17
(UTC+00:00)

Cosmos 1428 Rocket - Pass Details

Date: 08 December 2019
Orbit: 948 x 988 km, 82.9° (Epoch: 19 January)

Event Time Altitude Azimuth Distance (km) Brightness Sun altitude
Rises 01:06:39 0° 182° (S) 3,616 7.7 -21.1°
Reaches altitude 10° 01:09:07 10° 181° (S) 2,678 6.9 -21.6°
Maximum altitude 01:15:15 81° 96° (E) 979 4.3 -22.7°
Drops below altitude 10° 01:21:29 10° 9° (N) 2,722 6.6 -23.9°
Enters shadow 01:22:26 - 9° (N) 3,081 6.9 -24.1°
